Погода в Большие Летцы

Беларусь     55°11′48″N   29°58′05″E
темп.,
°C
ветер,
м/с
пор.,
м/с
влажн.,
%
обл.,
%
осадки,
мм/ч
давл.,
гПа
погр.,
м
14 апреля, ср
ср1400:00+10ю3698100 0.1 1017244
03:00+9з3698100 1.6 1016290
06:00+9ссз1197100 1.8 101656
09:00+8с2294100 2.0 1017141
12:00+8ссв4693100 0.4 1018255
15:00+7ссв4791100 0.9 1018271
18:00+7ссв4790100 0.1 1018289
21:00+6ссв5993100 0.2 1019309
15 апреля, чт
чт1500:00+5св51094100 0.1 1018323
03:00+5ссв51194100 0.1 1018327
06:00+5св51294100 0.1 1017486
09:00+6ссв61292100 0.1 1017481
12:00+6ссв61192100 1.0 1017444
15:00+6ссв71292100 2.1 1017464
18:00+8св7139183 0.0 1016580
21:00+8св71493100 0.2 1016568
16 апреля, пт
пт1600:00+7св71492100 0.5 1016516
03:00+7св61393100 0.9 1016532
06:00+7всв61393100 1.5 1016622
09:00+8всв61189100 1.9 1017607
12:00+11всв7976100 0.0 1018868
15:00+12всв81081100 0.5 1018856
18:00+10всв61185100 0.9 1019734
21:00+10всв51291100 1.8 1019542
17 апреля, сб
сб1700:00+10всв61386100 5.1 1019836
03:00+9св61187100 6.7 1019515
06:00+8всв5118981 0.0 1021478
09:00+8всв598899 0.0 1023495
12:00+11в5677100 0.0 1024920
15:00+10всв478487 0.0 1024627
18:00+11в4980100 0.1 1025575
21:00+10всв31084100 0.1 1025353
18 апреля, вс
вс1800:00+10всв5108193 0.0 1026281
03:00+6всв4108766 0.0 1026215
06:00+5всв4108522 0.0 1027234
09:00+8в596615 0.0 1027393
12:00+13в67545 0.0 1027964
15:00+15в67505 0.0 10271447
18:00+14в57567 0.0 10261479
21:00+9в410745 0.0 1028183